Location: Unspecified
(0.0000°N, 0.0000°E)
Time: 02:00:33
(UTC+00:00)

COSMOS 2439 - Visible Passes

Search period start: 16 May 2026 00:00
Search period end: 26 May 2026 00:00
Orbit: 1477 x 1511 km, 82.5° (Epoch: 15 May)

Date Brightness Start Highest point End Pass type
(mag) Time Alt. Az. Time Alt. Az. Time Alt. Az.
16 May ? 21:31:27 10° N 21:34:05 23° N 21:34:05 23° N visible
17 May ? 20:42:24 10° NNE 20:45:24 23° NNE 20:45:24 23° NNE visible
18 May ? 19:55:01 10° NE 19:56:45 15° NE 19:56:45 15° NE visible
18 May ? 21:49:36 10° NNW 21:52:41 23° NW 21:52:41 23° NW visible
19 May ? 20:59:37 10° N 21:04:04 35° N 21:04:04 35° N visible
20 May ? 20:10:59 10° NNE 20:15:29 29° NE 20:15:29 29° NE visible
20 May ? 22:08:37 10° NW 22:11:26 19° WNW 22:11:26 19° WNW visible
21 May ? 19:24:24 10° NE 19:26:56 15° ENE 19:26:56 15° ENE visible
21 May ? 21:17:29 10° NNW 21:22:53 39° NW 21:22:53 39° NW visible
22 May ? 20:27:54 10° N 20:34:22 52° NNE 20:34:22 52° NNE visible
22 May ? 22:29:36 10° WNW 22:30:20 11° WNW 22:30:20 11° WNW visible
23 May ? 19:39:42 10° NNE 19:45:53 31° ENE 19:45:53 31° ENE visible
23 May ? 21:36:06 10° NNW 21:41:52 30° WNW 21:41:52 30° WNW visible
24 May ? 18:54:30 10° ENE 18:57:28 13° E 18:57:28 13° E visible
24 May ? 20:45:30 10° N 20:53:26 67° WNW 20:53:26 67° WNW visible
25 May ? 19:56:18 10° N 20:04:53 56° E 20:05:03 56° E visible
25 May ? 21:55:57 10° NW 22:01:01 18° W 22:01:01 18° W visible
